www.pogodaiklimat.ru

Погода и климат >> Архив погоды >> Россия >> Приморский край >> Малая Кема


ПОГОДА в Малой Кеме

  • Прогноз погоды в Малой Кеме
  • Монитор погоды в Малой Кеме

АРХИВ ПОГОДЫ в Малой Кеме

Время (UTC), дата Ветер
(напр.,м/с)
 
Видим.   Явления Облачность Т
(С)
Тd
(С)
f
(%)
Тe
(С)
Тes
(С)
Комфортность P
(гПа)
Po
(гПа)
Тmin
(С)
Tmax
(С)
R
(мм)
R24
(мм)
S
(см)
21 14.03 СЗ 1 н/о н/о -3.6 -6.4 81 -6 -6 1018.1 1016.0 -6.1
00 15.03 ЮВ 1 н/о н/о +1.2 -5.1 63 -0 1018.0 1016.0
03 15.03 ЮВ 2 н/о н/о +1.6 -1.1 82 -2 -2 1016.7 1014.7
06 15.03 ЮЗ 3 н/о н/о +3.6 -5.3 52 0 1015.3 1013.3
09 15.03 ЮЗ 1 н/о н/о +0.2 -4.4 71 -1 -1 1015.3 1013.3 +4.0
12 15.03 С 2 н/о н/о -3.0 -5.5 83 -7 1015.3 1013.3
15 15.03 С 1 н/о н/о -4.8 -6.6 87 -7 -7 1015.4 1013.3
18 15.03 СЗ 1 н/о н/о -6.1 -7.2 92 -9 1014.1 1012.0
21 15.03 С 1 н/о н/о -5.9 -7.0 92 -8 -8 1015.4 1013.3 -7.3
00 16.03 С 2 н/о н/о +1.6 -4.9 62 -1 1015.3 1013.3
03 16.03 В 3 н/о н/о +1.6 -4.5 64 -2 1015.3 1013.3
06 16.03 Ю 2 н/о н/о +1.4 -3.7 69 -2 1014.0 1012.0
09 16.03 штиль 0 н/о н/о -0.5 -4.9 72 -1 1015.3 1013.3 +3.0
12 16.03 С 2 н/о н/о -2.9 -6.4 77 -7 1016.8 1014.7
15 16.03 С 1 н/о н/о -5.0 -7.1 85 -7 1016.8 1014.7
18 16.03 СЗ 2 н/о н/о -1.8 -10.1 53 -5 1015.3 1013.3
21 16.03 СЗ 3 н/о н/о -2.7 -10.7 54 -7 1016.8 1014.7 -5.8
00 17.03 СЗ 5 н/о н/о +1.9 -10.9 38 -3 1016.7 1014.7
03 17.03 Ю 4 н/о н/о +5.0 -10.3 32 +2 1015.3 1013.3
06 17.03 ЮЗ 8 н/о н/о +2.5 -7.4 48 -3 1012.7 1010.7
09 17.03 З 5
{14}
н/о н/о +1.3 -5.0 63 -4 -4 1014.0 1012.0 +6.4
12 17.03 З 2 н/о н/о -2.6 -10.4 55 -6 1015.3 1013.3
15 17.03 СЗ 1 н/о н/о -1.2 -11.1 47 -3 1014.0 1012.0
18 17.03 С 1 н/о н/о -2.4 -10.9 52 -4 1014.0 1012.0
21 17.03 СЗ 1 н/о н/о -3.5 -12.2 51 -5 1012.7 1010.7 -4.4
00 18.03 ЮВ 1 н/о н/о +2.9 -8.7 42 +2 1012.7 1010.7 -5.4
03 18.03 ЮЗ 5 н/о н/о +7.1 -10.6 27 +4 1008.7 1006.7
06 18.03 ЮЗ 5 н/о н/о +4.1 -0.9 70 -1 1006.0 1004.0
09 18.03 ЮЗ 1 н/о н/о +1.4 -0.3 88 -0 -0 1003.2 1001.1 +7.6
12 18.03 СВ 1 н/о н/о -1.3 -2.1 94 -4 1004.7 1002.7
15 18.03 штиль 0 н/о н/о -2.6 -5.1 83 -4 1004.7 1002.7
18 18.03 Ю 1 н/о н/о -3.9 -6.4 83 -6 1004.7 1002.7
21 18.03 СЗ 2 н/о н/о +1.7 -4.7 62 -1 -1 1005.2 1003.2 -4.6
00 19.03 В 1 н/о н/о +8.7 -5.9 35 +9 1008.7 1006.7
03 19.03 ЮЗ 6 н/о н/о +13.4 -10.4 18 +12 1008.6 1006.7
06 19.03 В 3 н/о н/о +8.5 -5.7 36 +7 1010.0 1008.0
09 19.03 СВ 6-11
{15}
н/о н/о +2.0 -2.5 72 -4 -4 1014.0 1012.0 +14.9
12 19.03 В 4 н/о н/о -0.8 -2.7 87 -6 1018.0 1016.0
15 19.03 СВ 3 н/о н/о -0.9 -4.9 74 -6 1018.0 1016.0
18 19.03 СВ 2 н/о н/о -1.2 -6.5 67 -5 1016.7 1014.7
21 19.03 С 2 н/о н/о -1.6 -5.6 74 -5 1014.0 1012.0 -1.6
00 20.03 Ю 2 н/о н/о -0.6 -5.0 72 -4 1011.3 1009.3 -1.7
03 20.03 Ю 3 н/о н/о +0.7 -3.2 75 -4 1008.7 1006.7
06 20.03 Ю 3 н/о н/о +1.1 -2.1 79 -3 1008.7 1006.7
09 20.03 СВ 6-11
{13}
н/о н/о -1.5 -3.7 85 -9 -9 1014.0 1012.0 +1.8
12 20.03 В 8-13
{14}
н/о н/о -1.9 -5.0 79 -10 -10 1016.5 1014.4
15 20.03 В 5 н/о н/о -2.1 -5.4 78 -9 1018.0 1016.0
18 20.03 СВ 3 н/о н/о -3.4 -4.4 93 -9 1016.8 1014.7
21 20.03 СВ 3 н/о н/о -3.7 -5.5 87 -9 1015.4 1013.3 -3.8
00 21.03 СВ 4 н/о н/о -3.7 -5.4 88 -10 1012.7 1010.7 -3.9
03 21.03 СВ 4 н/о н/о -3.7 -4.8 92 -10 1010.0 1008.0
06 21.03 СВ 4 н/о н/о -3.4 -4.8 90 -10 1006.0 1004.0
09 21.03 СВ 4
{14}
н/о н/о -4.3 -5.8 89 -11 -11 1003.3 1001.3 -3.3
12 21.03 СВ 4 н/о н/о -3.9 -9.7 64 -10 1003.3 1001.3
15 21.03 С 2 н/о н/о -5.4 -8.1 81 -10 1003.3 1001.3
18 21.03 СВ 1 н/о н/о -5.6 -6.7 92 -8 1004.7 1002.7

 

Местоположение метеостанции Малая Кема (Приморский край, Россия): широта 45.40 долгота 137.10 высота над уровнем моря 16 м.

В архиве по умолчанию представлена погода в Малой Кеме за последнюю неделю. Архивные данные за месяц целиком и за предыдущие месяцы, начиная с января 2011 года, Вы можете получить, выбрав интересующий диапазон дат из раскрывающегося списка и нажав кнопку "Ввод!".


*Определитесь, кто Вы:
робот инопланетянин человек

Внимание! Время в таблицах - всемирное. Для получения местного времени необходимо прибавить поправку, которая равна 10 ч.

Смотрите также архив погоды в соседних городах и на ближайших метеорологических станциях:

Погода в Тернее (Приморский край, Россия) (59 км)
Погода в Мельничном (Приморский край, Россия) (125 км)
Погода в Рудной Пристани (Приморский край, Россия) (154 км)
Погода в Сосуново (Приморский край, Россия) (158 км)
Погода в Глубинном (Приморский край, Россия) (158 км)
Погода в Богополе (Приморский край, Россия) (185 км)
Погода в Красном Яре (Приморский край, Россия) (188 км)
Погода в Кавалерово (Приморский край, Россия) (209 км)
Погода в Малиново (Приморский край, Россия) (226 км)
Погода в Ольге (Приморский край, Россия) (232 км)

Пояснения к столбцам:

Ветер - указаны скорость ветра в м/с - средняя за 10 мин, порывы в срок и между сроками (в фигурных скобках) и направление, откуда дует ветер: С - северный, СВ - северо-восточный, В - восточный, ЮВ - юго-восточный, Ю - южный, ЮЗ - юго-западный, З - западный, СЗ - северо-западный.
Видимость - горизонтальная дальность видимости в метрах или километрах. При видимости от 1 до 10 км при отсутствии осадков обычно наблюдается дымка, при ухудшении видимости до 1 км и менее - туман. В сухую погоду видимость может ухудшаться дымом, пылью или мглою.
Явления - указаны атмосферные явления, наблюдавшиеся в срок или в последний час перед сроком; фигурными скобками обозначены явления, наблюдавшиеся между сроками (за 1-3 часа до срока); квадратными скобками обозначены град или гололедные отложения с указанием их диаметра в мм.
Облачность - указаны через наклонную черту общая и нижняя облачность в баллах и высота нижней границы облаков в метрах; квадратными скобками обозначены формы облаков: Ci - перистые, Cs - перисто-слоистые, Cc - перисто-кучевые, Ac - высококучевые, As - высокослоистые, Sc - слоисто-кучевые, Ns - слоисто-дождевые, Cu - кучевые, Cb - кучево-дождевые. Подробнее классификацию облаков см. в Атласе облаков (PDF).
T - Температура воздуха - температура, измеренная на высоте 2 м над землей.
Td - Температура точки росы - температура, при понижении до которой содержащийся в воздухе водяной пар достигнет насыщения.
f - Относительная влажность воздуха - влажноcть воздуха, измеренная на высоте 2 м над землей.
Te - Эффективная температура - температура, которую ощущает одетый по сезону человек в тени. Характеристика душности погоды. При расчете учитывается влияние влажности воздуха и скорости ветра на теплоощущения человека.
Tes - Эффективная температура на солнце - температура, которую ощущает человек, с поправкой на солнечный нагрев. Характеристика знойности погоды. Зависит от высоты солнца над горизонтом, облачности и скорости ветра. Ночью, в пасмурную погоду, а также при ветре 12 м/с и более поправка равна нулю.
P - Атмосферное давление - приведенное к уровню моря атмосферное давление.
Po - Атмосферное давление - измеренное на уровне метеостанции атмосферное давление.
Tmin - Минимальная температура - минимум температуры воздуха на высоте 2 м над землей.
Tmax - Максимальная температура - максимум температуры воздуха на высоте 2 м над землей.
R - Количество осадков - Количество выпавших осадков за период времени, мм. При наведении курсора мыши на число - период времени, за который выпало указанное количество осадков.
R24 - Количество осадков - Количество выпавших осадков за 24 часа, мм.
S - Снежный покров - Высота снежного покрова, см. При наведении курсора мыши на число - состояние снежного покрова и степень покрытия местности в баллах.